MyTimes logo

TIMES

Webb Imagery

29/01/2004

YMCA at Boroondara Aquathon Series - Race #4

(1.5km run / 250m swim) x3

(Click on competitor name to view personalised results)

Name
Race #
Category
Team Name
Time
(h:mm:ss)
Avg Speed
km/hr
OAll
Place
Cat
Place
MC CARDEL Chloe#409Open Team0:27:35 11.4 11
WALPOLE Stuart#407Junior Male0:30:15 10.4 21
MC ALLISTER Gary#405Adult Male0:30:24 10.4 31
HARRIS Julian#417Junior Team0:31:06 10.1 41
STEAHR Clinton#421Adult Male0:31:31 10 52
VAN LINT Stefan#416Adult Male0:32:11 9.8 63
EWART Chris#426Adult Male0:32:27 9.7 74
RITTER Andrew#406Adult Male0:33:28 9.4 85
BURMAN Caitlin#402Adult Female0:34:02 9.3 91
FERGUSON Anthony#423Adult Male0:34:53 9 106
BOURKE Stephen#427Adult Male0:35:06 9 117
YOUNG Kathy#420Adult Female0:36:36 8.6 122
SCHEDLICH Carl#410Adult Male0:36:39 8.6 138
SPENCE Anne#418Open Team0:38:17 8.2 142
O'HALLORAN Andrew#428Adult Male0:39:21 8 159
SKIPWORTH Johnathon#419Adult Male0:39:27 8 1610
LITTLE Jacinta#412Adult Female0:40:40 7.7 173
JONES Kate#422Open Team0:41:08 7.7 183
PITANO Nate#425Adult Male0:41:20 7.6 1911
RAINE Bryan#424Adult Male0:41:46 7.5 2012
LEWES Jonathon#404Adult Male0:42:22 7.4 2113
ROSSBOROUGH Jaimee#411Adult Female0:44:10 7.1 224
DOBSON Genivieve#403Adult Female0:44:33 7.1 235
SORANAIVALU Andrew#414Junior Male0:46:11 6.8 242
ARMSTRONG David#413Adult Male0:47:28 6.6 2514
FROST Kerry#415Adult Female0:54:44 5.8 266